Kuchera_Ratio
0.0 0.0 0.0 0.0 0.0 0.0 0.0 0.0 0.0 0.0 0.0 0.0 0.0 0.0 0.0 0.0 0.0 0.0 0.0 0.0 0.0 0.0 0.0 0.0 0.0 0.0 0.0 0.0 0.0 0.0 0.0 1.4 4.9 6.9 8.6 7.5 8.5 6.1 5.9 4.5 5.6 6.1 9.7 12.7 12.9 14.6 14.2 0.0 0.0 3.6 0.0 0.0 0.0 0.0
0.0 0.0 0.0 0.0 0.0 0.0 0.0 0.0 0.0 0.0 0.0 0.0 0.0 0.0 0.0 0.0 0.0 0.0 0.0 0.0 0.0 0.0 0.0 0.0 0.0 0.0 0.0 0.0 0.0 0.0 0.0 0.0 0.0 3.2 5.3 4.1 7.8 6.0 5.6 10.9 3.0 7.8 1.5 2.2 4.8 1.5 0.0 0.0 0.0 0.0 0.0 0.0 0.0 0.0
0.0 0.0 0.0 0.0 0.0 0.0 0.0 0.0 0.0 0.0 0.0 0.0 0.0 0.0 0.0 0.0 0.0 0.0 0.0 0.0 0.0 0.0 0.0 0.0 0.0 0.0 0.0 0.0 0.0 0.0 0.0 0.0 0.0 0.0 0.0 1.2 7.3 3.6 7.2 6.5 4.0 2.6 0.0 3.3 4.0 0.0 0.0 0.0 0.0 0.0 0.0 0.0 0.0 0.0
0.0 0.0 0.0 0.0 0.0 0.0 0.0 0.0 0.0 0.0 0.0 0.0 0.0 0.0 0.0 0.0 0.0 0.0 0.0 0.0 0.0 0.0 5.6 0.2 0.0 0.0 0.0 0.0 0.0 0.0 0.0 0.0 0.0 0.0 0.0 3.0 4.0 0.0 4.8 0.2 3.2 0.0 0.0 0.0 1.6 0.0 0.0 0.0 0.0 0.0 0.0 0.0 0.0 0.0
0.0 0.0 0.0 0.0 0.0 0.0 0.0 0.0 0.0 0.0 0.0 0.0 0.0 0.0 0.0 0.0 0.0 0.0 0.0 0.0 0.0 0.0 7.1 4.3 0.0 0.0 0.0 0.0 0.0 0.0 0.0 0.0 0.0 1.2 3.4 5.1 0.6 0.0 0.0 3.6 2.0 0.0 0.0 1.3 2.2 0.0 0.0 0.0 0.0 0.0 0.0 0.0 0.0 0.0
0.0 0.0 0.0 0.0 0.0 0.0 0.0 0.0 0.0 0.0 0.0 0.0 0.0 0.0 0.0 0.0 0.0 0.0 0.0 0.0 0.0 0.0 1.5 7.4 0.0 0.0 0.0 0.0 0.0 0.0 0.0 0.0 0.0 1.1 2.8 0.6 0.0 0.0 7.0 6.8 0.0 0.0 0.0 0.0 0.0 0.0 0.0 0.0 0.0 0.0 0.0 0.0 0.0 0.0
0.0 0.0 0.0 0.0 0.0 0.0 0.0 0.0 0.0 0.0 0.0 0.0 0.0 0.0 0.0 0.0 0.0 0.0 0.0 0.0 0.0 0.0 0.6 6.4 6.1 0.0 0.0 0.0 1.3 1.1 0.0 0.0 0.0 2.2 5.0 3.3 3.1 0.0 6.7 8.0 0.0 0.0 0.0 0.0 0.0 0.0 0.0 0.0 0.0 0.0 0.0 0.0 0.0 0.0
0.0 0.0 0.0 0.0 0.0 0.0 0.0 0.0 0.0 0.0 0.0 0.0 0.0 0.0 0.0 0.0 0.0 0.0 0.0 0.0 0.0 0.0 0.0 8.2 8.6 6.7 0.5 6.7 6.2 1.0 5.0 3.7 3.2 3.8 4.6 6.4 3.7 3.7 8.9 0.0 0.0 0.0 0.0 0.0 0.0 0.0 0.0 0.0 0.0 0.0 0.0 0.5 1.9 1.9
0.0 0.0 0.0 0.0 0.0 0.0 0.0 0.0 0.0 0.0 0.0 0.0 0.0 0.0 0.0 0.0 2.0 0.0 0.0 0.0 0.0 0.6 8.2 9.2 12.4 12.5 3.3 5.4 5.0 5.6 4.7 9.7 3.8 8.4 7.9 5.8 7.9 10.6 7.3 3.4 0.7 0.0 1.1 2.0 0.0 1.7 3.3 4.4 3.9 2.8 1.7 1.3 1.6 0.9
0.0 0.0 0.0 0.0 0.0 0.0 0.0 0.0 0.0 0.0 0.0 0.0 0.0 1.5 6.3 0.0 0.0 0.0 0.0 2.9 4.0 4.2 5.5 11.2 8.1 12.2 7.5 7.9 8.2 8.3 7.5 9.6 12.8 10.7 7.1 9.9 7.8 1.0 2.5 1.7 2.5 3.9 5.2 3.5 8.5 9.8 5.0 4.8 4.4 2.4 1.1 0.0 0.6 1.0
0.0 0.0 0.0 0.0 0.0 0.0 0.0 0.0 0.0 0.0 0.0 0.0 4.5 5.8 0.0 0.0 0.0 2.4 8.0 10.5 7.9 10.8 8.4 9.8 8.1 10.2 3.9 10.2 10.0 7.7 10.1 11.6 16.3 13.1 12.0 13.7 13.4 10.0 9.0 8.4 7.4 6.2 4.9 5.5 5.3 4.6 4.4 1.9 0.7 0.5 1.1 0.5 0.4 0.8
0.0 0.0 0.0 0.0 0.0 0.0 0.0 0.0 0.0 0.0 0.0 0.2 0.1 0.0 0.0 3.8 8.5 12.4 12.6 10.8 12.3 13.6 9.0 8.3 9.8 6.9 6.9 2.5 8.4 8.4 11.3 11.8 16.1 10.7 12.8 16.1 13.3 12.5 11.9 9.4 5.9 2.8 0.3 0.0 0.0 0.0 0.0 0.6 1.1 2.0 2.8 1.9 1.3 0.5
0.0 0.0 0.0 0.0 0.0 0.0 0.0 0.0 0.0 0.0 0.0 0.0 4.2 8.9 9.9 12.4 14.4 15.4 18.7 15.9 14.9 10.0 7.5 8.0 9.4 7.5 7.2 6.0 8.7 9.7 13.1 14.4 11.5 13.5 15.7 14.4 12.8 11.6 9.8 7.8 4.8 1.8 1.1 0.5 1.6 0.5 0.0 0.3 0.0 1.0 1.8 0.5 0.0 1.1
0.0 0.0 0.0 0.0 0.0 0.0 0.0 0.0 0.0 0.0 1.3 9.4 12.1 14.9 14.3 16.5 16.2 15.0 14.9 14.6 11.2 8.0 8.0 8.1 10.0 10.7 8.5 10.8 10.1 13.9 13.1 13.7 16.9 17.4 17.0 13.2 12.2 8.6 6.4 5.7 5.5 5.4 3.5 3.3 3.1 2.2 1.4 2.3 2.0 1.8 2.4 0.2 1.3 3.2
0.0 0.0 0.0 0.0 0.0 0.0 0.0 0.0 0.0 0.0 6.3 11.3 11.8 15.6 15.9 12.7 12.7 12.2 11.7 11.2 9.9 5.8 11.8 11.9 12.7 11.0 12.4 14.0 15.1 15.7 17.0 17.4 16.7 16.8 13.1 8.4 7.2 7.2 7.6 6.5 6.2 6.8 6.5 6.2 5.6 5.1 5.0 4.8 4.7 4.8 2.5 1.6 2.4 4.6
0.0 0.0 0.0 0.0 0.0 0.0 0.0 0.0 0.0 2.0 8.2 10.7 11.2 14.3 14.0 15.1 13.7 12.4 12.1 11.1 9.1 9.9 9.2 13.0 14.6 16.5 16.4 15.3 18.1 17.7 18.7 18.2 15.5 12.8 6.5 8.6 8.4 7.9 6.9 6.6 7.5 6.7 5.3 5.5 5.0 5.1 5.6 5.9 6.4 6.1 5.0 5.7 5.8 5.7
0.0 4.5 0.0 0.0 0.0 0.0 0.0 2.2 5.5 9.3 11.9 12.8 13.1 12.3 14.4 13.8 12.6 11.9 10.5 8.8 9.3 11.7 15.0 14.8 17.0 17.5 16.5 18.2 18.6 16.1 18.2 13.4 7.8 5.9 6.2 6.8 7.0 6.8 5.0 5.2 5.5 6.0 6.8 6.8 7.0 6.2 5.9 5.4 6.2 8.1 10.0 6.9 6.1 5.9
2.8 0.0 0.0 0.0 0.0 0.0 3.5 5.3 9.6 12.1 14.0 13.7 14.3 12.7 11.7 12.1 13.8 12.7 11.2 8.6 10.8 12.8 12.6 15.0 13.0 16.1 17.5 20.1 19.4 14.4 10.1 7.6 7.7 8.3 6.6 5.9 6.5 5.6 5.6 7.4 6.7 7.1 7.0 7.0 7.3 7.5 7.9 10.0 10.7 9.8 8.1 7.7 9.3 9.6
1.6 0.0 0.0 0.0 0.0 4.8 10.9 9.8 9.2 14.9 14.2 13.9 13.6 11.2 10.7 10.7 7.9 3.8 6.0 6.0 7.5 8.0 11.6 13.5 15.2 16.8 16.5 15.4 12.7 11.9 10.9 10.5 10.3 7.0 6.9 6.6 6.7 6.8 6.5 6.8 7.3 8.1 8.4 8.8 9.5 9.1 7.5 6.7 7.1 6.5 6.3 6.8 8.8 7.6
0.0 0.0 0.0 0.0 0.0 8.5 12.0 11.9 8.9 15.1 16.6 14.2 14.5 13.8 13.0 12.8 8.3 8.2 9.0 9.4 11.6 13.6 15.3 17.0 16.7 12.6 12.3 8.0 5.8 6.8 6.4 6.3 8.0 12.0 10.9 8.1 5.4 6.0 7.7 7.9 8.1 6.8 7.8 7.5 7.7 4.3 7.4 7.9 6.7 6.2 8.1 9.1 11.3 11.1
0.0 0.7 0.0 0.0 6.6 7.7 10.4 12.3 13.0 13.1 15.1 15.5 15.1 14.9 13.8 13.6 13.7 13.5 13.1 11.9 14.1 13.9 17.2 12.8 12.5 7.2 4.3 3.6 3.1 3.9 5.3 6.1 9.0 9.0 9.5 9.5 5.0 5.4 6.2 6.2 6.6 7.0 8.5 8.7 9.5 8.7 7.0 8.8 7.2 5.4 7.9 8.0 6.3 6.1
5.2 0.0 6.7 5.9 9.3 9.0 11.3 12.1 14.8 13.5 15.2 15.2 15.5 15.0 14.4 14.6 13.8 13.2 13.5 14.6 14.5 13.6 13.4 8.4 7.5 7.4 7.7 7.8 5.6 5.1 5.6 6.3 6.8 6.9 3.7 4.6 9.5 9.4 9.2 7.5 8.3 10.4 9.6 9.3 9.1 9.6 8.8 7.1 5.6 5.7 7.6 7.6 5.2 6.1
0.0 3.6 8.8 8.5 13.0 15.6 15.2 12.3 15.5 15.7 17.6 16.1 16.8 17.2 17.7 17.5 13.7 14.8 14.7 14.0 12.9 7.7 7.3 7.1 6.9 6.3 7.6 6.4 7.1 7.6 7.6 8.3 9.0 7.9 7.4 7.4 7.2 7.5 8.1 8.3 8.1 10.0 11.6 9.1 7.4 8.0 8.5 4.4 4.9 5.3 5.5 6.0 6.9 7.4
0.9 9.6 13.9 14.6 15.7 17.0 15.5 15.9 15.8 16.0 16.1 18.3 19.2 18.2 17.8 17.5 15.8 17.4 17.7 13.7 11.3 7.4 8.8 9.4 10.5 12.2 11.6 11.9 13.0 11.1 9.5 8.6 9.7 9.5 8.6 9.6 11.6 9.7 8.1 8.3 7.2 6.2 6.3 6.2 7.8 8.0 7.6 8.0 5.1 7.5 7.9 8.7 8.7 10.2
14.4 15.8 14.7 17.3 16.6 17.3 19.6 20.0 19.2 19.2 20.3 18.5 20.0 18.3 17.7 17.2 18.0 17.7 17.5 14.3 13.2 12.2 11.3 9.4 11.6 12.4 13.3 12.6 11.8 9.9 7.1 9.5 11.1 12.1 8.4 8.2 9.3 9.3 9.4 8.8 8.1 6.3 6.2 10.0 10.3 10.0 9.9 9.4 9.4 9.1 9.5 10.1 11.8 12.2
18.3 15.8 17.0 17.4 18.9 19.1 19.0 19.6 19.8 19.5 19.8 19.5 18.4 17.9 18.1 18.4 19.3 19.0 17.2 12.7 12.7 12.0 11.7 12.0 12.1 12.4 12.5 12.6 12.8 12.3 9.5 7.0 10.1 12.8 9.8 7.0 9.5 11.0 12.7 12.7 12.5 10.1 5.3 6.8 10.0 10.5 11.5 11.9 12.0 12.0 12.0 11.8 8.9 10.1
19.1 18.7 16.2 14.7 16.3 17.1 19.2 19.0 19.4 19.6 19.1 19.0 17.8 18.1 18.4 22.8 22.4 17.3 12.6 8.7 10.0 6.2 5.5 6.0 8.4 10.2 11.1 9.1 8.6 8.6 8.4 8.2 10.0 9.6 5.4 5.8 6.8 7.2 8.5 12.1 12.9 9.3 5.9 7.2 8.6 10.7 11.7 11.6 11.8 12.0 12.1 11.6 11.9 11.8
16.1 16.3 18.6 16.8 17.4 16.7 19.0 18.8 18.7 18.6 17.9 17.1 18.1 18.5 18.1 18.6 17.2 11.1 8.3 4.1 4.1 4.8 7.1 8.0 8.2 9.0 9.5 8.9 8.1 9.1 11.3 9.9 10.4 10.9 12.2 12.3 12.1 11.9 11.4 9.9 8.2 5.7 7.2 8.9 9.5 9.8 10.7 11.4 11.5 11.5 11.7 12.1 12.0 11.0
16.2 15.5 16.2 18.6 17.8 18.4 18.0 18.9 18.4 14.5 13.5 14.5 18.1 18.2 17.0 12.7 7.6 7.9 5.0 4.4 4.8 8.8 11.3 11.8 11.3 10.7 11.1 10.9 11.5 11.9 11.9 12.7 14.1 16.2 16.9 15.7 14.6 13.0 12.1 13.8 13.4 12.9 12.9 13.2 11.6 11.5 12.9 13.2 13.3 13.3 13.2 13.3 13.1 12.9
16.3 15.9 16.7 18.7 18.9 19.0 15.1 14.2 13.6 12.9 13.0 12.6 11.6 11.1 10.8 10.1 6.5 3.5 7.2 9.3 12.1 13.8 13.2 13.4 13.8 14.3 15.0 15.3 15.5 15.1 13.6 13.1 14.6 15.2 15.6 15.9 16.0 15.4 14.6 15.0 15.2 14.9 14.7 15.2 15.4 15.1 12.6 13.6 13.9 14.2 14.3 14.2 14.1 14.2
15.7 17.0 17.1 18.2 18.4 14.3 13.6 13.1 13.1 13.7 14.1 13.5 12.9 15.0 14.6 12.4 9.0 12.6 13.0 13.0 13.5 14.1 14.6 15.7 15.7 16.4 16.9 17.3 17.8 18.2 17.4 15.7 15.5 16.0 15.4 15.2 15.5 16.3 16.4 16.3 16.0 15.3 15.4 15.6 15.6 15.6 15.6 15.6 15.7 15.9 16.0 15.9 15.5 14.4
17.0 17.7 18.6 18.7 17.6 13.9 14.9 14.9 14.7 14.9 14.1 14.1 14.3 14.7 15.4 15.5 16.0 14.5 13.4 13.2 14.0 14.8 16.0 17.0 18.3 18.1 17.6 18.0 18.3 17.4 15.1 16.3 16.4 16.5 17.2 17.2 16.9 16.1 15.9 15.7 15.0 14.7 14.9 15.0 15.0 15.1 15.2 15.6 15.7 15.9 15.8 15.9 15.5 15.2
18.3 18.5 18.5 19.0 18.4 17.0 16.4 16.4 16.3 17.5 17.2 16.9 17.0 17.6 17.7 17.6 17.1 15.0 12.7 13.9 15.3 16.5 17.5 17.9 17.4 17.4 17.6 18.0 17.7 17.2 15.8 17.0 16.6 13.6 13.8 13.4 12.8 12.9 13.6 14.6 14.6 14.8 15.1 15.3 15.2 14.9 14.9 15.3 16.1 16.6 16.8 16.5 16.2 16.0